Simultaneous Nadir Overpasses (SNOs) Predictions

Prediction of SNOs between AQUA and NOAA-19 Satellite Orbit:

Table of predicted SNOs for the next 14.0 days since TLE Epoch: 8/10/2024
Index Date (AQUA) Time (AQUA) Lat,Lon (AQUA) SZA (AQUA ) Date (NOAA-19) Time (NOAA-19) Lat,Lon (NOAA-19) SZA (NOAA-19 ) Distance(km) Time Diff (sec)
1 08/11/2024 23:27:06 75.46,-172.29 60.50 08/11/2024 23:25:56 75.37,-173.71 60.43 40.91 70
2 08/12/2024 00:16:32 -75.71, -5.37 119.23 08/12/2024 00:16:45 -75.72, -5.27 119.22 2.89 13
3 08/14/2024 03:16:41 -75.67, -50.24 118.63 08/14/2024 03:15:38 -75.68, -50.10 118.62 4.02 63
4 08/14/2024 04:06:04 75.72, 117.27 61.44 08/14/2024 04:06:38 75.70, 117.23 61.42 2.40 34
5 08/16/2024 07:06:11 75.66, 72.45 62.04 08/16/2024 07:05:30 75.66, 72.43 62.04 0.58 41
6 08/16/2024 07:55:33 -75.71,-120.05 117.90 08/16/2024 07:56:26 -75.74,-120.03 117.87 2.81 53
7 08/18/2024 10:55:39 -75.69,-164.95 117.24 08/18/2024 10:55:19 -75.67,-164.95 117.26 2.35 20
8 08/18/2024 11:45:03 75.79, 2.39 62.88 08/18/2024 11:46:15 75.82, 2.83 62.90 12.29 72
9 08/20/2024 14:45:06 75.70, -42.31 63.48 08/20/2024 14:45:08 75.70, -42.22 63.49 2.48 2
10 08/22/2024 17:45:08 75.64, -87.10 64.13 08/22/2024 17:44:00 75.62, -87.16 64.12 2.34 68



Historial Predications of SNOs between AQUA and NOAA-19
